Wind_Speed
46 46 47 47 48 49 49 49 49 50 51 52 53 53 54 55 55 55 55 55 56 56 56 56 56 57 57 57 58 58 59 59 60 60 61 61 62 63 63 64 65 67
47 47 48 48 49 49 49 49 50 52 53 53 54 54 54 55 55 55 55 55 55 55 55 56 56 57 58 59 59 60 60 61 61 62 62 63 64 64 65 66 67 68
48 48 49 49 49 49 50 51 52 53 53 53 53 54 54 55 55 55 55 55 55 55 56 56 57 58 60 60 61 61 62 62 63 64 64 65 66 66 67 68 69 70
47 48 49 49 49 50 50 51 52 52 53 53 53 54 54 55 55 55 55 56 56 57 57 58 59 60 61 62 63 63 64 64 65 66 66 67 68 69 69 70 71 72
48 48 49 49 49 50 51 51 51 52 52 53 53 54 54 55 56 56 56 57 58 59 60 61 61 62 63 64 65 65 66 66 67 68 69 69 70 71 71 72 73 74
48 48 49 49 49 50 50 51 51 52 52 53 53 55 55 56 57 57 58 59 60 61 62 63 64 65 66 67 67 68 68 69 69 70 71 72 72 73 73 74 75 76
48 49 49 50 50 50 51 51 51 52 52 53 55 56 57 58 58 59 60 61 62 64 64 65 66 67 68 69 69 70 71 71 72 72 73 73 74 74 74 75 76 78
49 50 50 50 51 51 51 52 52 53 54 55 56 57 59 60 61 61 62 63 64 66 67 68 68 69 70 71 72 72 73 73 73 74 74 75 75 76 76 77 78 79
50 50 50 51 51 52 52 53 53 54 56 57 58 59 61 62 63 64 65 66 66 67 68 70 70 71 72 73 74 74 74 75 75 75 76 76 77 77 78 78 79 80
51 51 52 52 52 53 54 54 55 56 57 58 60 61 62 64 65 66 67 68 69 69 70 71 72 73 74 75 75 76 76 76 76 77 77 78 78 79 79 80 80 81
52 53 53 53 54 55 55 56 57 58 59 60 62 63 64 65 67 68 69 70 70 71 72 73 74 75 76 77 77 78 78 77 78 78 79 79 80 80 81 81 81 82
54 54 54 55 56 56 57 58 59 60 61 62 63 65 66 67 68 70 70 71 72 73 74 75 76 78 79 79 79 79 79 79 80 80 80 81 81 82 82 82 83 83
55 55 56 56 57 58 59 60 61 62 63 64 65 66 67 68 70 70 71 72 74 75 76 77 78 80 81 81 81 81 81 82 82 82 82 82 83 83 83 84 84 84
55 56 56 57 58 59 60 61 62 63 64 65 66 67 68 69 70 72 73 74 75 77 78 79 80 81 82 83 83 84 84 84 84 84 84 84 84 84 85 85 85 84
56 57 58 59 60 61 62 63 64 65 66 67 68 68 70 71 72 73 74 76 77 78 79 81 82 83 84 85 86 86 87 86 86 86 85 85 85 86 86 85 85 84
58 58 59 60 61 63 64 65 66 67 68 69 70 71 72 73 74 75 76 77 78 80 81 83 84 85 86 87 88 89 88 88 87 87 87 87 87 87 86 85 84 84
59 60 61 63 64 65 67 68 69 70 71 72 73 73 74 75 76 77 78 79 80 82 83 85 86 87 88 89 90 90 90 89 88 87 87 88 88 87 86 84 84 83
61 63 64 66 67 68 70 71 72 73 74 74 75 76 77 78 79 79 81 82 83 84 85 87 88 88 89 90 91 90 90 88 88 87 87 88 88 87 85 84 83 82
65 66 68 69 70 72 73 74 75 75 76 77 78 79 80 81 81 82 83 84 86 87 88 88 89 89 90 90 89 89 89 88 87 87 88 88 88 86 84 83 82 81
68 70 71 72 74 75 76 76 77 78 79 80 81 82 83 83 84 85 86 87 88 89 89 90 89 89 89 89 88 88 88 87 87 87 88 88 86 84 83 81 80 79
72 73 74 76 77 78 78 79 80 81 82 83 84 85 86 86 87 88 89 90 90 91 91 90 90 89 89 88 88 87 86 87 87 87 86 85 83 82 81 80 79 78
76 77 78 79 79 80 81 82 83 84 85 86 87 88 89 90 91 92 92 92 92 92 92 91 90 89 88 87 86 85 85 86 86 85 84 82 81 80 79 79 79 79
78 79 80 81 82 83 84 85 86 88 89 90 91 92 93 93 94 94 94 94 93 92 91 89 87 86 84 83 82 82 82 82 83 82 81 80 80 80 80 80 80 80
81 82 83 84 85 87 88 89 90 91 92 93 94 94 95 95 95 94 93 92 90 88 86 84 82 80 79 78 77 77 78 79 79 79 79 79 80 80 81 81 80 80
84 85 87 88 89 90 91 92 93 93 94 94 94 94 93 92 90 88 86 83 81 79 77 76 74 74 73 73 73 74 75 76 76 77 77 78 79 80 79 79 79 78
87 88 90 90 92 92 93 93 93 93 92 91 90 88 86 83 79 76 73 71 69 68 67 67 67 67 68 69 70 71 73 74 74 74 74 75 76 76 76 75 75 76
Wind_Direction
278 278 278 278 278 278 278 278 277 277 276 276 276 276 277 278 279 280 280 280 280 281 282 282 282 282 282 282 282 283 283 283 284 284 284 285 285 285 285 286 286 287
279 278 278 277 277 277 277 276 276 276 276 276 277 277 278 279 279 279 280 280 281 281 281 281 281 281 281 282 282 282 283 283 284 284 284 285 285 285 285 286 286 287
279 278 277 277 276 276 276 275 276 276 276 277 277 278 278 279 279 279 280 280 281 281 281 280 281 281 281 281 282 282 283 283 284 284 285 285 285 285 285 286 286 286
279 278 277 277 276 276 276 276 276 276 277 277 277 278 278 278 279 280 280 280 281 281 281 280 280 280 281 281 282 283 283 284 284 284 284 284 285 285 285 286 286 286
278 277 277 277 277 276 276 276 276 277 277 277 277 278 278 278 279 279 280 280 280 280 281 281 281 281 282 282 283 283 284 284 284 284 284 284 285 285 285 286 286 286
278 278 277 277 276 276 276 276 277 277 277 277 277 278 278 278 278 279 279 280 280 280 281 281 282 282 283 283 283 284 284 284 284 284 284 284 285 285 286 286 286 286
278 278 277 277 276 276 276 276 277 277 277 277 277 277 277 278 278 279 279 279 280 280 281 281 282 282 283 283 283 284 284 284 284 284 285 285 285 286 286 286 286 287
278 277 277 277 277 277 277 277 277 276 276 276 277 277 278 278 278 279 279 279 280 281 281 281 282 282 282 283 283 283 284 284 285 285 285 285 286 286 286 286 286 287
278 278 277 277 277 277 277 277 277 276 276 277 277 278 278 279 279 280 280 280 280 281 281 281 282 282 282 282 283 283 284 285 285 285 285 286 286 286 286 286 286 286
279 279 278 278 278 278 277 277 277 277 277 278 278 279 279 279 280 280 281 281 281 281 281 281 282 282 282 283 283 284 284 285 285 286 285 285 285 286 286 286 286 286
279 279 279 279 278 278 278 278 278 279 279 279 279 279 280 280 280 280 281 281 281 282 282 282 282 282 283 283 284 284 285 285 285 285 285 285 285 285 285 285 285 285
279 279 279 279 279 279 279 279 280 280 280 280 280 280 280 280 280 281 281 282 282 282 282 282 282 282 283 284 284 285 285 285 285 284 284 284 284 284 285 285 285 285
279 279 279 280 280 280 280 281 281 281 281 281 281 281 281 281 281 281 281 281 282 282 282 282 282 283 283 284 284 284 284 284 284 284 284 284 284 284 284 284 284 285
280 280 280 281 281 281 281 282 282 282 282 282 282 282 282 282 282 281 281 282 282 282 282 282 283 283 284 284 284 284 284 284 284 284 283 283 283 283 283 284 284 285
281 281 282 282 282 282 282 282 282 282 283 283 283 283 282 282 282 282 282 282 282 282 282 282 283 283 284 284 284 284 284 284 284 283 283 282 282 282 283 284 284 284
282 283 283 283 283 283 283 283 283 283 283 283 283 283 283 282 282 282 282 282 282 282 282 282 283 283 283 283 283 283 283 283 283 282 282 281 281 282 283 283 284 283
283 283 283 283 283 284 284 284 284 284 284 284 283 283 283 282 282 282 282 282 282 282 282 282 283 283 282 282 282 282 282 282 282 281 281 281 281 282 283 283 283 282
283 283 283 283 283 284 284 284 284 284 284 284 284 284 283 283 283 283 283 282 282 282 282 282 282 281 281 281 281 281 281 281 280 280 280 280 281 282 283 283 282 281
283 283 283 284 284 284 284 284 285 284 284 284 284 284 284 284 284 284 283 283 282 282 281 281 280 280 280 280 280 280 280 280 279 279 279 280 281 282 282 282 281 280
283 284 284 284 285 285 285 285 285 285 285 285 285 285 285 285 285 284 283 282 282 281 280 280 279 279 279 279 279 279 279 278 278 278 279 280 281 281 281 280 279 279
283 284 284 285 285 285 285 285 286 286 286 286 286 286 286 285 284 284 283 282 281 280 279 279 279 278 278 278 278 277 277 276 276 277 278 279 279 279 279 279 279 279
283 284 284 285 285 285 286 286 286 286 286 286 286 286 285 285 284 283 282 281 280 280 279 279 279 278 278 277 276 276 275 275 276 277 277 278 278 278 278 278 279 279
284 285 285 286 286 286 287 287 287 287 287 287 286 286 285 284 283 283 282 281 281 280 280 279 279 278 277 276 275 274 273 273 274 275 276 277 277 277 278 278 279 280
286 286 287 287 287 288 288 288 288 288 288 287 287 286 285 284 283 283 282 282 281 280 279 279 278 276 275 275 274 273 272 272 273 274 275 275 276 276 277 278 279 280
288 288 288 288 289 289 289 289 289 289 288 287 287 286 285 284 283 283 282 281 281 280 279 278 277 276 275 274 273 272 272 272 272 273 274 275 275 276 277 278 279 280
289 289 289 289 290 290 290 290 289 289 288 287 286 285 285 284 283 282 282 281 280 280 279 278 278 276 275 274 274 273 272 273 274 274 275 275 276 276 277 278 279 280
Height
5569 5568 5567 5565 5564 5563 5562 5561 5560 5559 5558 5557 5555 5554 5553 5552 5551 5550 5549 5547 5545 5544 5543 5541 5540 5538 5536 5535 5533 5532 5531 5529 5527 5526 5524 5522 5520 5519 5517 5515 5513 5511
5562 5561 5560 5559 5558 5556 5555 5554 5553 5551 5550 5549 5548 5547 5546 5544 5543 5542 5541 5539 5538 5537 5535 5534 5532 5530 5529 5527 5526 5524 5523 5521 5519 5518 5516 5514 5512 5510 5508 5506 5504 5502
5556 5554 5553 5552 5551 5550 5548 5547 5545 5544 5543 5542 5541 5540 5538 5537 5535 5534 5533 5532 5530 5529 5528 5526 5524 5523 5521 5519 5518 5516 5515 5513 5511 5509 5507 5505 5503 5501 5499 5497 5495 5493
5549 5547 5546 5545 5544 5543 5541 5540 5538 5537 5536 5535 5534 5532 5531 5529 5528 5527 5525 5524 5523 5521 5520 5518 5516 5515 5513 5511 5509 5508 5506 5504 5502 5500 5498 5496 5494 5492 5490 5488 5486 5483
5542 5540 5539 5538 5537 5535 5534 5533 5532 5530 5529 5528 5526 5525 5523 5522 5520 5519 5518 5516 5515 5513 5511 5510 5508 5506 5504 5503 5501 5499 5497 5495 5493 5491 5489 5487 5484 5483 5480 5478 5476 5473
5535 5534 5533 5531 5530 5528 5527 5526 5525 5523 5522 5521 5519 5517 5516 5514 5512 5511 5510 5508 5506 5505 5503 5501 5500 5498 5496 5494 5492 5490 5488 5486 5484 5482 5479 5477 5475 5473 5470 5468 5466 5463
5528 5527 5525 5524 5523 5521 5520 5519 5518 5516 5515 5513 5511 5509 5508 5506 5505 5503 5502 5500 5498 5496 5495 5493 5491 5489 5487 5485 5483 5481 5478 5476 5474 5472 5470 5467 5465 5463 5461 5458 5455 5453
5522 5520 5519 5517 5516 5515 5514 5512 5511 5509 5507 5505 5503 5501 5500 5498 5496 5495 5494 5492 5490 5488 5486 5484 5482 5480 5478 5476 5474 5471 5469 5467 5464 5462 5460 5457 5455 5453 5450 5448 5445 5442
5515 5513 5512 5511 5509 5508 5506 5505 5503 5501 5499 5497 5495 5493 5492 5490 5488 5486 5485 5483 5481 5479 5478 5475 5473 5471 5469 5466 5464 5462 5459 5457 5454 5452 5450 5447 5444 5442 5439 5437 5435 5432
5507 5506 5504 5503 5502 5500 5499 5497 5495 5493 5492 5490 5487 5485 5484 5482 5479 5477 5475 5474 5472 5470 5468 5466 5463 5461 5458 5456 5454 5452 5449 5447 5444 5442 5439 5437 5434 5431 5428 5426 5424 5421
5499 5498 5496 5495 5493 5492 5490 5489 5487 5485 5484 5482 5480 5477 5476 5473 5470 5468 5466 5464 5462 5460 5458 5456 5453 5450 5448 5446 5444 5442 5439 5437 5434 5431 5428 5426 5423 5420 5418 5415 5413 5410
5491 5489 5488 5487 5485 5484 5482 5481 5479 5477 5475 5474 5472 5468 5466 5464 5461 5459 5456 5454 5452 5450 5447 5445 5442 5439 5437 5435 5433 5431 5429 5426 5423 5420 5418 5415 5412 5409 5407 5404 5402 5399
5483 5481 5480 5478 5477 5475 5474 5472 5470 5468 5466 5464 5462 5459 5457 5454 5452 5449 5447 5444 5442 5439 5437 5434 5431 5428 5426 5424 5422 5420 5417 5415 5412 5409 5407 5404 5401 5398 5396 5393 5391 5388
5474 5473 5471 5470 5468 5466 5465 5463 5461 5459 5457 5455 5453 5450 5447 5445 5442 5439 5436 5433 5431 5428 5426 5423 5420 5417 5415 5413 5410 5408 5405 5402 5400 5398 5395 5393 5390 5387 5385 5383 5380 5377
5466 5464 5462 5461 5459 5457 5455 5453 5451 5449 5447 5445 5443 5440 5437 5434 5431 5428 5425 5423 5420 5417 5415 5411 5408 5406 5403 5400 5397 5395 5392 5390 5388 5386 5383 5381 5378 5376 5374 5372 5369 5366
5457 5455 5453 5451 5450 5447 5445 5443 5441 5439 5437 5435 5432 5430 5427 5424 5421 5418 5415 5412 5409 5406 5403 5400 5397 5395 5391 5388 5384 5381 5379 5377 5375 5373 5370 5368 5366 5364 5363 5361 5358 5355
5448 5446 5444 5442 5440 5438 5435 5433 5431 5429 5426 5424 5422 5419 5416 5413 5410 5407 5404 5401 5398 5395 5392 5388 5386 5383 5379 5375 5371 5368 5367 5365 5362 5360 5357 5355 5353 5352 5351 5349 5346 5343
5439 5437 5435 5432 5430 5427 5425 5423 5420 5418 5416 5413 5410 5408 5405 5402 5399 5397 5393 5390 5386 5383 5380 5377 5374 5371 5366 5362 5359 5356 5354 5352 5349 5347 5345 5342 5341 5341 5339 5337 5334 5330
5429 5427 5424 5422 5419 5417 5414 5412 5409 5407 5404 5402 5399 5396 5393 5391 5388 5385 5381 5378 5374 5371 5368 5365 5362 5358 5354 5350 5347 5343 5341 5339 5337 5334 5332 5330 5330 5329 5327 5324 5321 5318
5418 5416 5414 5411 5408 5406 5403 5400 5398 5395 5392 5389 5386 5384 5381 5378 5375 5372 5369 5365 5362 5358 5355 5352 5349 5346 5341 5337 5334 5331 5328 5326 5324 5321 5319 5318 5318 5317 5314 5311 5308 5306
5408 5405 5402 5400 5397 5394 5391 5388 5385 5383 5380 5377 5374 5371 5368 5365 5361 5358 5355 5352 5348 5345 5341 5339 5336 5333 5328 5324 5321 5318 5315 5311 5310 5310 5308 5307 5306 5305 5302 5300 5297 5295
5397 5394 5391 5388 5385 5382 5379 5376 5373 5370 5367 5363 5360 5357 5354 5351 5347 5344 5340 5337 5334 5330 5327 5325 5322 5318 5314 5311 5308 5306 5302 5298 5296 5297 5297 5296 5294 5293 5291 5288 5286 5285
5385 5382 5379 5375 5372 5369 5366 5363 5360 5357 5353 5349 5346 5343 5339 5336 5332 5328 5325 5321 5318 5315 5312 5310 5307 5304 5300 5297 5295 5293 5290 5286 5285 5284 5284 5283 5282 5280 5278 5277 5275 5274
5372 5368 5365 5362 5359 5355 5352 5349 5346 5342 5338 5334 5330 5327 5323 5319 5316 5312 5309 5306 5303 5300 5297 5295 5293 5290 5287 5285 5283 5281 5277 5275 5274 5273 5273 5271 5270 5268 5267 5265 5264 5263
5358 5355 5351 5348 5345 5341 5338 5334 5330 5327 5323 5318 5314 5311 5307 5303 5300 5297 5294 5291 5288 5286 5283 5281 5279 5277 5274 5272 5271 5268 5266 5263 5263 5262 5262 5260 5259 5257 5256 5255 5253 5252
5344 5341 5337 5334 5330 5326 5322 5319 5315 5311 5307 5302 5298 5295 5292 5289 5285 5282 5280 5278 5275 5273 5271 5269 5267 5265 5263 5260 5259 5257 5254 5252 5252 5252 5251 5250 5248 5246 5245 5244 5243 5241